Temperature
17 17 17 17 17 17 17 17 17 17 18 18 18 19 19 18 17 17 17 17 17 17 17 16 16 16 16 16 16 15 15 15 15 15 15 15 15 15 15 15 15 15 15
18 18 17 17 17 17 17 17 17 17 17 17 18 18 18 17 17 17 16 16 16 16 16 16 16 16 15 15 15 15 15 15 14 14 14 14 14 14 14 14 14 14 14
18 18 18 17 17 17 17 17 17 17 17 17 17 17 17 17 17 16 16 15 15 15 15 15 15 15 15 15 14 14 14 14 14 14 13 13 13 13 13 13 13 13 13
18 18 18 17 17 17 17 17 16 16 16 16 16 16 16 16 16 16 15 15 14 14 14 14 14 14 14 14 14 13 13 13 13 13 12 12 12 12 12 12 12 12 12
18 18 18 17 17 16 16 16 16 16 16 16 15 15 15 15 15 15 15 15 14 14 14 14 13 13 13 13 13 12 12 12 12 12 11 11 11 11 11 11 11 11 11
18 18 17 17 16 16 16 15 15 15 15 15 15 15 15 15 15 15 14 14 14 13 13 12 12 12 12 11 11 11 11 11 11 11 10 10 10 10 10 10 10 10 10
17 17 16 16 16 15 15 15 15 14 14 14 14 14 14 14 14 14 14 14 13 13 12 12 11 11 11 10 10 10 10 9 9 9 9 9 9 9 9 9 9 9 9
16 16 15 15 15 15 15 14 14 14 13 13 13 13 13 13 13 13 13 13 13 12 12 11 11 11 10 10 9 9 9 8 8 8 8 7 7 8 7 7 7 8 8
15 15 15 14 14 14 13 13 13 13 13 13 13 12 12 12 12 13 13 12 12 11 11 11 10 10 10 9 9 9 8 8 8 7 7 7 7 6 6 6 6 6 6
15 14 14 13 13 13 13 12 12 12 12 12 12 12 12 12 11 11 12 12 11 11 11 10 10 10 9 9 9 8 8 8 7 7 7 6 6 5 5 5 5 5 5
14 13 13 13 12 12 12 12 12 11 11 11 11 11 11 11 11 10 11 11 11 11 11 11 10 10 9 9 9 8 8 7 7 6 6 6 5 4 4 4 4 4 4
13 12 12 12 12 12 12 11 11 11 11 11 10 10 10 10 10 10 10 10 10 10 10 10 10 10 9 9 8 8 8 7 6 6 5 4 4 3 3 3 3 3 3
12 12 11 11 11 11 11 11 10 10 10 10 10 9 9 9 9 9 9 8 9 9 9 9 9 9 9 8 8 7 7 6 5 5 4 3 3 2 2 2 2 2 2
11 11 11 11 10 10 10 10 9 9 9 8 8 8 8 8 8 8 7 7 7 7 8 8 8 8 8 7 7 6 6 5 4 4 3 3 2 2 2 2 2 2 2
10 10 10 10 10 9 9 8 8 8 8 7 7 7 7 7 7 7 7 6 6 6 7 7 7 7 6 6 6 5 4 4 4 3 3 3 2 2 2 2 2 2 2
9 9 9 9 9 8 8 7 7 7 7 7 6 6 6 6 6 6 5 5 5 5 5 5 5 5 5 5 4 4 3 3 3 3 3 2 2 2 2 2 1 1 1
9 9 8 8 8 7 7 7 7 6 6 6 5 5 5 5 4 4 4 4 4 4 4 4 3 3 3 3 3 3 3 3 2 2 2 2 2 2 2 2 2 1 1
8 8 7 7 7 7 6 6 6 6 5 5 5 4 4 4 4 3 3 3 3 3 3 2 2 2 2 2 2 2 2 2 2 2 2 2 2 2 2 2 2 2 1
7 7 7 6 6 6 5 5 5 5 4 4 4 3 3 3 3 2 2 2 2 2 2 1 1 2 2 2 2 2 2 2 2 2 2 2 2 2 2 2 2 2 2
7 6 6 6 5 5 5 5 4 4 3 3 3 3 3 2 2 2 2 1 1 1 1 1 1 1 1 2 2 1 1 1 1 2 2 1 1 2 2 2 2 2 2
6 5 5 5 5 4 4 4 4 4 3 3 3 2 2 2 2 2 1 1 1 1 1 1 1 1 1 1 1 1 1 1 1 1 1 1 1 1 1 1 1 2 2
5 5 4 4 4 4 4 3 3 3 3 3 2 2 2 2 2 1 1 1 1 1 1 1 1 1 1 1 1 1 1 1 1 1 1 1 1 1 1 1 1 1 2
4 4 3 3 3 3 3 3 3 3 3 2 1 1 1 1 1 1 1 1 1 1 1 1 1 1 1 1 1 1 0 0 0 1 0 0 1 1 1 1 1 1 1
3 3 3 2 2 2 2 2 2 2 1 1 1 1 1 1 1 1 1 1 2 2 2 1 1 1 1 1 0 0 0 0 0 0 0 0 1 1 1 1 1 1 1
3 3 2 2 2 1 1 1 1 1 1 1 1 1 1 1 1 1 1 1 2 2 2 2 1 1 1 1 0 0 0 0 0 0 0 -0 0 0 1 1 1 1 1
3 2 2 2 1 1 1 1 0 1 0 0 0 1 1 1 1 1 1 1 2 2 2 2 2 1 1 1 0 0 -0 0 0 0 0 -0 -0 -0 0 1 1 1 1
Wind_Speed
3 5 4 5 6 6 6 5 4 3 2 1 4 6 9 11 13 14 11 12 11 9 7 5 3 1 1 2 2 3 3 4 5 5 6 6 7 8 9 10 10 10 11
5 4 3 2 2 2 2 2 1 3 2 3 5 9 10 12 12 12 11 11 12 11 10 8 7 6 5 5 5 5 4 4 4 5 5 6 7 8 9 10 11 12 13
9 6 3 2 1 2 2 2 3 3 2 3 5 7 8 10 10 9 5 8 10 11 11 10 9 8 7 7 6 6 6 7 7 7 7 7 7 7 8 9 10 11 13
11 7 4 3 4 4 3 2 2 3 3 4 5 4 4 4 6 5 5 5 7 9 10 9 8 6 5 5 5 5 6 6 7 8 8 8 9 9 10 10 10 11 12
10 8 5 4 5 4 3 2 4 4 4 4 3 2 2 2 2 3 3 3 2 2 8 9 7 5 4 3 1 1 3 4 6 7 9 9 10 10 11 11 12 12 12
10 9 6 6 7 5 4 5 5 5 3 3 2 1 1 1 1 1 2 2 0 2 1 5 7 7 7 6 5 5 4 5 6 8 10 11 12 13 13 14 14 14 14
10 9 6 6 6 6 6 5 3 3 2 1 1 1 2 3 3 1 1 2 2 1 2 5 6 5 8 10 10 9 8 8 8 9 11 12 14 15 16 17 17 16 16
9 8 7 5 5 6 6 5 3 2 2 2 1 1 2 2 2 4 3 4 3 3 3 7 7 6 7 8 10 13 13 11 10 10 11 13 15 17 18 19 20 19 19
9 8 8 6 5 4 4 5 4 4 3 2 1 1 1 2 3 2 4 4 3 2 3 7 10 10 8 9 8 11 13 11 10 11 13 13 15 17 20 22 22 22 22
8 9 9 8 5 4 5 5 4 3 3 2 1 1 1 2 2 3 2 4 5 5 6 7 9 9 10 10 10 9 6 7 6 7 9 13 16 20 22 23 24 24 24
9 10 10 9 7 6 6 7 5 4 2 2 1 1 2 2 4 3 4 4 3 4 5 4 5 7 10 10 9 2 5 5 2 3 8 13 18 22 23 24 24 25 25
7 10 11 10 8 7 6 6 5 6 5 4 4 3 2 2 3 3 4 5 5 5 5 4 3 7 10 8 4 5 5 3 4 7 12 17 20 22 23 24 24 25 26
8 8 8 7 7 7 7 6 5 5 5 5 4 4 5 5 4 4 5 6 7 6 7 6 3 6 7 7 6 4 4 6 8 11 15 19 22 23 24 25 26 27 27
9 8 8 8 8 8 7 5 4 4 4 3 3 3 3 4 5 5 4 6 7 7 6 7 5 7 9 10 8 10 13 15 16 17 18 21 24 26 27 28 28 28 28
9 8 8 7 7 7 6 3 4 4 4 3 5 5 5 5 5 5 6 6 6 9 8 7 6 6 11 13 13 15 16 19 22 23 24 25 26 26 27 27 28 28 29
8 8 8 7 6 5 4 3 3 4 4 4 3 4 4 4 5 5 5 6 6 8 10 6 6 7 11 16 19 18 19 23 23 25 25 25 25 25 25 26 27 28 28
8 8 8 7 6 5 4 4 4 4 5 5 5 6 6 6 5 5 6 6 6 7 10 9 8 8 10 10 13 17 19 19 19 21 22 21 21 22 24 26 27 27 27
8 7 6 6 5 6 5 5 5 6 6 6 6 6 6 7 7 6 6 7 7 7 9 12 10 10 11 11 9 8 15 17 16 21 23 23 24 25 25 26 27 27 26
8 7 7 6 5 4 4 5 6 6 6 6 6 6 6 6 6 6 7 7 7 8 8 10 12 10 10 10 10 11 10 9 16 19 22 23 23 24 24 25 26 26 26
8 7 5 5 5 8 10 10 10 8 6 5 6 6 6 6 6 6 7 7 7 8 9 10 11 11 10 10 9 9 10 8 10 15 19 21 22 23 23 23 24 24 25
6 5 4 5 6 9 10 10 9 9 9 7 7 6 7 8 7 4 7 7 8 9 10 11 11 12 11 10 11 9 11 10 11 10 9 10 10 10 14 18 18 20 22
5 5 6 7 9 9 10 11 9 8 9 8 7 6 8 7 5 6 9 11 12 12 12 12 12 13 13 12 10 10 10 11 7 5 8 11 10 9 7 12 14 14 15
6 6 6 7 8 8 8 8 10 8 9 8 6 6 8 9 7 6 9 13 13 15 15 12 13 12 13 12 11 11 10 11 11 9 9 10 8 9 7 13 14 13 12
5 5 5 6 6 6 5 6 11 8 8 6 6 6 6 7 4 6 10 12 12 12 13 11 9 10 11 11 10 10 11 10 10 8 6 6 7 8 11 8 11 11 11
3 3 4 4 3 5 3 5 9 9 7 7 7 7 6 6 3 7 10 12 13 12 15 16 17 17 19 16 11 7 8 8 8 6 4 3 5 8 9 5 6 9 11
2 2 3 2 2 3 4 2 7 7 8 8 7 7 5 4 7 10 10 11 13 13 13 15 13 14 10 8 8 5 6 7 6 4 2 3 4 5 5 5 6 7 6
Wind_Direction
153 149 160 180 203 190 181 230 237 148 101 316 337 39 39 50 81 100 102 100 100 98 95 87 75 39 322 296 285 281 275 276 276 277 275 271 267 262 257 254 250 247 245
135 128 138 176 235 132 151 232 92 95 72 39 40 41 39 39 50 78 109 106 102 98 91 81 67 53 42 33 26 20 14 4 349 337 323 310 298 287 278 270 262 256 252
134 134 141 150 153 107 95 46 59 85 97 75 60 47 44 38 34 33 63 119 116 103 97 91 82 71 60 49 40 34 31 26 18 8 360 353 348 337 322 305 288 275 265
134 135 137 143 142 121 98 81 53 67 58 57 65 46 47 44 38 7 357 39 107 118 120 117 112 105 95 77 57 40 26 18 15 10 4 359 354 352 350 344 331 313 292
132 129 123 121 124 94 71 83 56 57 59 49 62 75 43 32 12 336 16 358 42 107 140 149 148 152 152 147 140 350 335 339 343 342 340 338 338 340 340 338 335 330 320
132 129 125 123 115 98 80 70 71 60 56 39 352 13 331 330 293 358 331 328 340 252 190 152 178 189 198 213 227 244 263 289 307 316 319 321 323 324 322 320 320 320 320
138 132 123 117 118 121 123 116 101 107 98 44 322 283 232 213 220 187 242 299 294 256 294 280 253 244 194 224 236 242 247 258 278 296 305 312 317 316 313 310 308 307 307
118 121 124 127 126 130 132 128 133 127 97 64 18 312 290 248 230 223 204 211 238 253 283 285 280 253 242 244 241 231 237 248 266 282 295 306 311 311 309 306 302 300 299
116 125 131 129 131 128 130 132 140 139 139 121 59 39 347 331 342 217 224 238 223 208 251 270 279 274 265 264 263 241 239 236 249 268 286 295 302 305 304 301 298 295 292
116 118 118 119 117 107 108 109 88 97 114 132 139 89 85 78 314 328 264 242 223 226 232 246 259 272 275 272 275 280 240 215 239 279 291 295 299 300 299 296 294 292 289
95 101 104 103 97 95 94 91 90 79 87 77 115 170 196 207 220 247 290 309 290 256 241 231 246 258 265 265 265 220 142 149 174 275 291 295 297 298 295 292 291 290 288
93 96 99 100 98 96 93 94 91 73 62 47 21 11 3 335 320 312 311 316 309 315 328 318 287 272 267 271 289 110 135 180 234 270 287 294 296 294 291 289 288 288 288
106 103 102 101 99 99 98 94 84 75 59 40 13 7 6 346 337 335 326 317 315 315 311 301 293 328 336 3 55 53 317 290 280 280 290 294 292 288 285 284 285 286 286
110 107 103 100 101 102 95 86 95 90 74 17 357 27 338 329 348 336 328 324 313 306 303 305 331 340 355 8 21 345 326 317 307 297 291 289 287 284 282 280 281 282 283
115 112 106 100 93 87 83 68 77 58 53 14 6 18 6 348 337 348 340 324 310 307 304 313 321 340 356 349 341 329 320 312 306 299 290 283 281 280 279 278 279 279 278
108 109 102 97 94 91 78 53 72 59 28 20 7 5 354 342 356 331 326 325 315 306 304 315 326 341 346 328 320 320 310 302 297 290 286 282 279 276 277 278 278 277 276
104 105 105 103 99 87 65 41 34 34 22 16 358 2 359 343 334 338 326 317 321 327 317 315 318 322 324 313 309 304 301 296 292 293 295 294 287 279 276 276 276 275 274
97 96 92 87 85 76 55 35 22 30 20 11 4 355 345 340 346 332 335 331 326 322 314 312 313 309 304 302 296 297 302 301 305 302 300 298 291 282 277 273 271 268 266
84 81 79 75 68 63 54 38 31 25 17 360 351 344 340 334 329 340 336 320 316 317 316 307 304 302 299 299 301 300 298 300 303 303 304 300 297 293 286 278 270 262 257
81 76 70 65 56 52 45 33 21 1 354 350 340 334 328 326 329 336 319 312 320 320 310 304 301 301 300 300 303 304 304 301 302 303 301 300 300 300 295 286 275 265 257
79 69 62 60 63 64 45 33 6 353 348 336 328 330 326 319 305 291 297 310 308 303 304 300 301 303 303 307 307 306 303 303 295 292 300 303 303 299 298 294 287 273 260
61 53 50 57 62 69 60 41 13 345 328 318 324 332 318 312 344 291 284 291 289 291 295 296 298 298 301 303 305 305 304 303 300 299 308 307 304 301 297 295 292 283 261
65 56 52 64 86 82 58 30 1 327 306 306 319 318 317 321 331 342 326 313 302 294 285 285 291 298 304 307 308 308 306 306 304 305 306 305 307 306 303 308 306 284 267
66 69 63 59 90 96 63 17 346 319 305 311 312 307 308 313 1 350 324 312 303 302 299 299 298 303 306 307 306 304 300 298 296 297 309 303 310 314 313 304 308 292 276
63 68 79 60 80 126 97 18 354 325 323 333 322 316 316 317 18 336 319 310 309 308 312 318 318 309 304 304 309 309 304 302 304 308 323 309 304 315 309 305 322 307 284
51 49 68 42 28 115 139 27 345 334 336 330 318 316 324 321 321 314 315 310 306 308 315 316 313 312 312 321 331 314 311 312 315 304 326 317 294 311 306 303 316 318 302
Height
1564 1566 1567 1568 1569 1571 1572 1573 1575 1575 1577 1578 1580 1580 1581 1581 1580 1580 1581 1582 1583 1583 1584 1584 1584 1584 1585 1585 1584 1584 1584 1584 1584 1584 1584 1584 1584 1584 1584 1584 1584 1584 1584
1561 1563 1565 1567 1568 1570 1571 1572 1573 1574 1575 1577 1577 1578 1579 1579 1580 1580 1580 1580 1581 1581 1581 1582 1582 1581 1581 1581 1581 1581 1580 1580 1580 1580 1579 1579 1579 1579 1579 1580 1580 1580 1580
1558 1560 1561 1563 1565 1567 1569 1571 1571 1572 1573 1574 1575 1576 1577 1578 1578 1579 1580 1579 1578 1578 1578 1578 1578 1578 1577 1577 1577 1576 1576 1575 1575 1574 1574 1574 1574 1574 1574 1574 1574 1574 1575
1554 1556 1558 1560 1562 1564 1566 1568 1569 1570 1571 1572 1573 1574 1575 1576 1576 1577 1577 1577 1576 1574 1573 1573 1574 1574 1573 1573 1572 1572 1571 1570 1570 1569 1569 1568 1568 1568 1567 1568 1568 1568 1568
1551 1552 1555 1557 1559 1560 1562 1564 1566 1567 1569 1570 1571 1572 1572 1572 1573 1573 1573 1573 1573 1572 1570 1569 1569 1569 1569 1568 1568 1567 1567 1566 1565 1564 1564 1563 1562 1562 1561 1561 1561 1562 1562
1547 1548 1551 1552 1554 1556 1559 1560 1562 1564 1566 1567 1568 1569 1569 1569 1569 1568 1568 1569 1568 1568 1567 1566 1564 1564 1564 1564 1563 1563 1562 1561 1560 1560 1559 1558 1557 1556 1556 1555 1555 1555 1555
1543 1544 1546 1549 1550 1552 1554 1556 1559 1561 1562 1564 1565 1565 1565 1565 1564 1564 1564 1564 1564 1564 1564 1563 1562 1562 1560 1559 1559 1558 1557 1557 1556 1555 1554 1553 1551 1550 1550 1549 1548 1548 1547
1539 1540 1543 1545 1547 1549 1550 1552 1555 1557 1558 1560 1562 1562 1562 1562 1560 1561 1561 1560 1561 1561 1560 1560 1560 1559 1558 1556 1555 1554 1553 1552 1551 1550 1549 1547 1546 1545 1544 1543 1542 1541 1541
1536 1538 1539 1541 1544 1546 1548 1549 1552 1554 1555 1557 1558 1560 1560 1559 1559 1558 1558 1558 1558 1557 1557 1556 1556 1555 1554 1553 1551 1550 1548 1546 1546 1545 1544 1542 1541 1539 1538 1536 1535 1534 1534
1533 1535 1536 1539 1541 1543 1545 1547 1549 1552 1553 1554 1555 1556 1558 1558 1558 1557 1557 1556 1555 1554 1553 1552 1552 1551 1550 1549 1547 1545 1543 1541 1540 1539 1538 1536 1535 1533 1531 1529 1527 1526 1526
1531 1533 1535 1537 1539 1541 1543 1545 1547 1549 1551 1553 1554 1555 1556 1557 1556 1556 1555 1555 1554 1553 1552 1550 1549 1547 1546 1544 1542 1539 1537 1536 1534 1532 1531 1529 1527 1525 1523 1521 1519 1518 1518
1530 1532 1534 1536 1538 1540 1543 1545 1547 1548 1550 1552 1553 1554 1555 1556 1556 1555 1553 1552 1551 1550 1549 1548 1546 1544 1542 1540 1538 1535 1532 1530 1528 1525 1523 1521 1519 1517 1515 1513 1511 1510 1509
1529 1532 1534 1536 1538 1540 1543 1544 1546 1548 1549 1551 1552 1552 1553 1553 1553 1552 1551 1549 1547 1546 1545 1544 1543 1541 1539 1536 1533 1530 1527 1524 1521 1518 1516 1514 1511 1509 1507 1505 1503 1502 1500
1530 1532 1534 1537 1539 1541 1543 1545 1546 1548 1549 1550 1551 1551 1551 1551 1551 1550 1549 1547 1543 1541 1541 1540 1538 1536 1534 1530 1527 1524 1521 1518 1515 1512 1509 1506 1503 1501 1499 1497 1495 1493 1491
1531 1533 1536 1538 1540 1542 1544 1545 1547 1548 1549 1549 1550 1549 1549 1548 1548 1547 1546 1544 1543 1538 1535 1535 1534 1532 1528 1524 1521 1517 1514 1510 1507 1504 1501 1498 1495 1493 1490 1488 1486 1484 1482
1532 1535 1537 1539 1541 1543 1544 1546 1547 1547 1548 1548 1548 1547 1546 1546 1545 1544 1543 1541 1539 1537 1532 1530 1528 1526 1521 1518 1515 1511 1507 1503 1499 1496 1493 1490 1487 1485 1482 1479 1477 1475 1473
1535 1537 1539 1541 1542 1544 1545 1546 1546 1547 1547 1547 1546 1546 1544 1543 1542 1540 1539 1537 1535 1533 1528 1524 1523 1519 1516 1511 1508 1504 1500 1496 1493 1490 1486 1483 1480 1476 1473 1471 1468 1466 1464
1537 1538 1540 1542 1543 1544 1544 1545 1546 1545 1545 1544 1544 1543 1542 1540 1539 1537 1535 1533 1531 1528 1525 1519 1516 1513 1510 1506 1502 1498 1494 1490 1487 1483 1479 1475 1471 1468 1465 1462 1460 1458 1456
1538 1539 1541 1542 1543 1544 1544 1544 1544 1544 1543 1542 1541 1540 1538 1537 1535 1533 1531 1529 1527 1524 1521 1516 1511 1508 1504 1501 1496 1492 1488 1484 1480 1476 1472 1467 1463 1460 1456 1454 1451 1449 1448
1539 1540 1542 1542 1543 1543 1542 1542 1541 1541 1541 1540 1539 1537 1536 1534 1532 1530 1527 1525 1523 1520 1516 1512 1507 1503 1499 1495 1491 1486 1481 1477 1473 1469 1464 1460 1456 1452 1449 1446 1444 1442 1440
1540 1541 1542 1542 1542 1541 1540 1540 1540 1539 1538 1537 1536 1534 1533 1531 1529 1527 1524 1521 1518 1515 1512 1508 1503 1499 1494 1490 1486 1481 1475 1470 1466 1463 1458 1454 1449 1445 1442 1439 1436 1434 1432
1540 1541 1541 1541 1540 1539 1539 1538 1537 1536 1535 1534 1533 1531 1530 1529 1526 1524 1521 1518 1515 1512 1508 1504 1499 1494 1489 1485 1480 1475 1470 1465 1459 1458 1453 1448 1444 1439 1436 1432 1429 1427 1426
1540 1540 1540 1540 1540 1539 1538 1537 1535 1533 1532 1531 1530 1529 1527 1526 1523 1520 1517 1514 1511 1508 1505 1501 1496 1491 1486 1481 1475 1470 1466 1461 1457 1453 1449 1443 1440 1435 1431 1427 1424 1422 1420
1540 1540 1540 1540 1539 1538 1537 1535 1533 1531 1530 1529 1528 1526 1524 1522 1519 1517 1513 1509 1506 1503 1501 1497 1493 1487 1482 1476 1472 1467 1462 1457 1453 1450 1446 1441 1436 1431 1426 1423 1420 1418 1416
1541 1541 1540 1539 1538 1537 1536 1534 1531 1529 1528 1527 1525 1524 1522 1519 1517 1514 1510 1505 1502 1499 1496 1493 1489 1484 1478 1473 1467 1462 1457 1453 1449 1446 1443 1439 1433 1428 1424 1421 1418 1415 1412
1541 1541 1540 1539 1538 1536 1535 1533 1530 1527 1525 1524 1522 1521 1519 1517 1514 1511 1507 1503 1499 1495 1492 1487 1484 1479 1474 1469 1464 1460 1455 1451 1447 1444 1440 1437 1432 1428 1422 1419 1416 1413 1409